| time (UTC) | temp C | wind direction | speed KPH | gust KPH | rain 1hr cm | rain 24hr cm | rain mn cm | humidity % | barometer mb |
| 20260904190503 | 37 | 168 | 4.8 | 11.3 | 0.00 | 0.00 | 0.00 | 50 | 1013.6 |
| 20260904190002 | 37 | 171 | 3.2 | 12.9 | 0.00 | 0.00 | 0.00 | 52 | 1013.5 |
| 20260904185502 | 36 | 176 | 4.8 | 14.5 | 0.00 | 0.00 | 0.00 | 52 | 1013.6 |
| 20260904185003 | 36 | 179 | 4.8 | 16.1 | 0.00 | 0.00 | 0.00 | 51 | 1013.7 |
| 20260904184002 | 36 | 211 | 3.2 | 11.3 | 0.00 | 0.00 | 0.00 | 54 | 1013.7 |
| 20260904183502 | 36 | 183 | 3.2 | 11.3 | 0.00 | 0.00 | 0.00 | 54 | 1013.9 |
| 20260904183003 | 36 | 194 | 4.8 | 16.1 | 0.00 | 0.00 | 0.00 | 55 | 1014.1 |
| 20260904182503 | 36 | 190 | 6.4 | 16.1 | 0.00 | 0.00 | 0.00 | 55 | 1014.1 |
| 20260904182003 | 36 | 186 | 3.2 | 16.1 | 0.00 | 0.00 | 0.00 | 56 | 1014.2 |
| 20260904181502 | 35 | 196 | 3.2 | 12.9 | 0.00 | 0.00 | 0.00 | 57 | 1014.2 |
| 20260904181003 | 35 | 184 | 4.8 | 22.5 | 0.00 | 0.00 | 0.00 | 57 | 1014.3 |
| 20260904180502 | 35 | 177 | 4.8 | 22.5 | 0.00 | 0.00 | 0.00 | 56 | 1014.4 |
| 20260904180002 | 35 | 187 | 3.2 | 12.9 | 0.00 | 0.00 | 0.00 | 56 | 1014.4 |
| 20260904175502 | 35 | 214 | 4.8 | 12.9 | 0.00 | 0.00 | 0.00 | 56 | 1014.4 |
| 20260904175003 | 35 | 204 | 4.8 | 14.5 | 0.00 | 0.00 | 0.00 | 56 | 1014.6 |
| 20260904174003 | 35 | 251 | 3.2 | 9.7 | 0.00 | 0.00 | 0.00 | 58 | 1014.7 |
| 20260904173502 | 35 | 223 | 3.2 | 8.0 | 0.00 | 0.00 | 0.00 | 58 | 1014.7 |
| 20260904173002 | 35 | 196 | 3.2 | 9.7 | 0.00 | 0.00 | 0.00 | 57 | 1014.8 |
| 20260904172502 | 35 | 182 | 3.2 | 11.3 | 0.00 | 0.00 | 0.00 | 57 | 1014.9 |
| 20260904172002 | 35 | 161 | 3.2 | 11.3 | 0.00 | 0.00 | 0.00 | 58 | 1014.9 |
| 20260904171503 | 34 | 164 | 3.2 | 9.7 | 0.00 | 0.00 | 0.00 | 59 | 1014.9 |
| 20260904170002 | 34 | 201 | 4.8 | 12.9 | 0.00 | 0.00 | 0.00 | 58 | 1015.0 |
| 20260904164502 | 33 | 194 | 3.2 | 14.5 | 0.00 | 0.00 | 0.00 | 61 | 1015.2 |
| 20260904163502 | 33 | 199 | 3.2 | 11.3 | 0.00 | 0.00 | 0.00 | 66 | 1015.2 |
| 20260904163002 | 33 | 202 | 4.8 | 12.9 | 0.00 | 0.00 | 0.00 | 65 | 1015.2 |
| 20260904162003 | 32 | 196 | 3.2 | 9.7 | 0.00 | 0.00 | 0.00 | 67 | 1015.3 |
| 20260904161503 | 32 | 182 | 3.2 | 11.3 | 0.00 | 0.00 | 0.00 | 69 | 1015.1 |
| 20260904161002 | 32 | 197 | 4.8 | 11.3 | 0.00 | 0.00 | 0.00 | 67 | 1015.2 |
| 20260904160503 | 32 | 222 | 3.2 | 11.3 | 0.00 | 0.00 | 0.00 | 70 | 1015.2 |
| 20260904160002 | 32 | 206 | 3.2 | 11.3 | 0.00 | 0.00 | 0.00 | 69 | 1015.4 |
| 20260904155002 | 31 | 173 | 3.2 | 11.3 | 0.00 | 0.00 | 0.00 | 72 | 1015.4 |
| 20260904154503 | 31 | 182 | 3.2 | 11.3 | 0.00 | 0.00 | 0.00 | 73 | 1015.2 |
| 20260904154003 | 31 | 182 | 3.2 | 11.3 | 0.00 | 0.00 | 0.00 | 72 | 1015.2 |
| 20260904153002 | 31 | 193 | 3.2 | 12.9 | 0.00 | 0.00 | 0.00 | 73 | 1015.2 |
| 20260904152002 | 31 | 184 | 4.8 | 16.1 | 0.00 | 0.00 | 0.00 | 75 | 1015.0 |
| 20260904151503 | 30 | 176 | 3.2 | 14.5 | 0.00 | 0.00 | 0.00 | 76 | 1015.0 |
| 20260904151002 | 30 | 174 | 3.2 | 12.9 | 0.00 | 0.00 | 0.00 | 79 | 1015.0 |
| 20260904150502 | 30 | 184 | 4.8 | 12.9 | 0.00 | 0.00 | 0.00 | 78 | 1015.0 |
| 20260904150003 | 30 | 188 | 4.8 | 11.3 | 0.00 | 0.00 | 0.00 | 79 | 1015.0 |
| 20260904145502 | 30 | 200 | 3.2 | 14.5 | 0.00 | 0.00 | 0.00 | 80 | 1015.1 |
| 20260904145003 | 30 | 197 | 3.2 | 14.5 | 0.00 | 0.00 | 0.00 | 82 | 1015.1 |
| 20260904144002 | 28 | 178 | 4.8 | 11.3 | 0.00 | 0.00 | 0.00 | 84 | 1015.1 |
| 20260904143503 | 28 | 181 | 4.8 | 12.9 | 0.00 | 0.00 | 0.00 | 84 | 1015.2 |
| 20260904142503 | 28 | 187 | 4.8 | 12.9 | 0.00 | 0.00 | 0.00 | 85 | 1015.2 |
| 20260904141503 | 28 | 183 | 4.8 | 14.5 | 0.00 | 0.00 | 0.00 | 86 | 1015.1 |
| 20260904141002 | 28 | 172 | 4.8 | 14.5 | 0.00 | 0.00 | 0.00 | 87 | 1015.0 |
| 20260904140503 | 27 | 173 | 4.8 | 12.9 | 0.00 | 0.00 | 0.00 | 87 | 1015.0 |
| 20260904140003 | 27 | 176 | 3.2 | 12.9 | 0.00 | 0.00 | 0.00 | 89 | 1015.1 |
| 20260904135503 | 27 | 170 | 3.2 | 12.9 | 0.00 | 0.00 | 0.00 | 90 | 1015.0 |
| 20260904135002 | 27 | 172 | 3.2 | 11.3 | 0.00 | 0.00 | 0.00 | 90 | 1015.0 |
| 20260904134503 | 27 | 183 | 1.6 | 8.0 | 0.00 | 0.00 | 0.00 | 91 | 1014.9 |
| 20260904133003 | 26 | 164 | 1.6 | 8.0 | 0.00 | 0.00 | 0.00 | 93 | 1014.7 |
| 20260904132502 | 26 | 165 | 1.6 | 6.4 | 0.00 | 0.00 | 0.00 | 94 | 1014.7 |
| 20260904132003 | 25 | 166 | 1.6 | 8.0 | 0.00 | 0.00 | 0.00 | 94 | 1014.7 |
| 20260904131502 | 25 | 166 | 1.6 | 11.3 | 0.00 | 0.00 | 0.00 | 94 | 1014.6 |
| 20260904131003 | 25 | 168 | 1.6 | 11.3 | 0.00 | 0.00 | 0.00 | 94 | 1014.6 |
| 20260904130502 | 25 | 172 | 1.6 | 9.7 | 0.00 | 0.00 | 0.00 | 94 | 1014.5 |
| 20260904130003 | 25 | 170 | 1.6 | 6.4 | 0.00 | 0.00 | 0.00 | 94 | 1014.5 |
| 20260904125503 | 25 | 168 | 1.6 | 8.0 | 0.00 | 0.00 | 0.00 | 94 | 1014.5 |
| 20260904125003 | 25 | 170 | 1.6 | 8.0 | 0.00 | 0.00 | 0.00 | 94 | 1014.5 |
| 20260904124503 | 25 | 175 | 1.6 | 8.0 | 0.00 | 0.00 | 0.00 | 95 | 1014.4 |
| 20260904124002 | 25 | 176 | 1.6 | 6.4 | 0.00 | 0.00 | 0.00 | 95 | 1014.3 |
| 20260904123503 | 25 | 170 | 0.0 | 4.8 | 0.00 | 0.00 | 0.00 | 95 | 1014.4 |
| 20260904123002 | 25 | 167 | 0.0 | 4.8 | 0.00 | 0.00 | 0.00 | 95 | 1014.5 |
| 20260904122503 | 25 | 173 | 1.6 | 4.8 | 0.00 | 0.00 | 0.00 | 95 | 1014.3 |
| 20260904121003 | 25 | 164 | 1.6 | 4.8 | 0.00 | 0.00 | 0.00 | 95 | 1014.3 |
| 20260904120003 | 25 | 166 | 1.6 | 6.4 | 0.00 | 0.00 | 0.00 | 94 | 1014.3 |
| 20260904115502 | 25 | 170 | 1.6 | 6.4 | 0.00 | 0.00 | 0.00 | 94 | 1014.2 |
| 20260904115003 | 25 | 165 | 1.6 | 6.4 | 0.00 | 0.00 | 0.00 | 94 | 1014.2 |
| 20260904114503 | 25 | 162 | 1.6 | 6.4 | 0.00 | 0.00 | 0.00 | 94 | 1014.0 |
| 20260904114003 | 25 | 166 | 1.6 | 8.0 | 0.00 | 0.00 | 0.00 | 94 | 1014.1 |
| 20260904113503 | 25 | 174 | 1.6 | 8.0 | 0.00 | 0.00 | 0.00 | 94 | 1014.0 |
| 20260904113003 | 25 | 166 | 1.6 | 4.8 | 0.00 | 0.00 | 0.00 | 94 | 1014.0 |
| 20260904112503 | 25 | 157 | 0.0 | 6.4 | 0.00 | 0.00 | 0.00 | 94 | 1013.9 |
| 20260904112003 | 25 | 165 | 1.6 | 8.0 | 0.00 | 0.00 | 0.00 | 94 | 1013.8 |
| 20260904111503 | 24 | 165 | 1.6 | 8.0 | 0.00 | 0.00 | 0.00 | 94 | 1013.8 |
| 20260904111003 | 24 | 159 | 0.0 | 6.4 | 0.00 | 0.00 | 0.00 | 93 | 1013.9 |
| 20260904110503 | 24 | 163 | 1.6 | 6.4 | 0.00 | 0.00 | 0.00 | 93 | 1013.9 |
| 20260904110003 | 25 | 167 | 1.6 | 8.0 | 0.00 | 0.00 | 0.00 | 93 | 1013.9 |
| 20260904105503 | 24 | 166 | 1.6 | 8.0 | 0.00 | 0.00 | 0.00 | 93 | 1013.9 |
| 20260904105003 | 24 | 163 | 1.6 | 4.8 | 0.00 | 0.00 | 0.00 | 93 | 1013.9 |
| 20260904104503 | 24 | 165 | 1.6 | 4.8 | 0.00 | 0.00 | 0.00 | 93 | 1013.9 |
| 20260904104003 | 24 | 167 | 0.0 | 4.8 | 0.00 | 0.00 | 0.00 | 93 | 1013.8 |
| 20260904102503 | 24 | 169 | 0.0 | 3.2 | 0.00 | 0.00 | 0.00 | 92 | 1013.8 |
| 20260904102003 | 24 | 163 | 0.0 | 6.4 | 0.00 | 0.00 | 0.00 | 92 | 1013.7 |
| 20260904101503 | 24 | 166 | 0.0 | 6.4 | 0.00 | 0.00 | 0.00 | 92 | 1013.6 |
| 20260904101003 | 24 | 172 | 0.0 | 3.2 | 0.00 | 0.00 | 0.00 | 92 | 1013.8 |
| 20260904100503 | 24 | 173 | 0.0 | 3.2 | 0.00 | 0.00 | 0.00 | 91 | 1013.7 |
| 20260904100003 | 24 | 173 | 0.0 | 1.6 | 0.00 | 0.00 | 0.00 | 90 | 1013.7 |
| 20260904095003 | 24 | 173 | 0.0 | 1.6 | 0.00 | 0.00 | 0.00 | 90 | 1013.6 |
| 20260904094503 | 24 | 173 | 0.0 | 1.6 | 0.00 | 0.00 | 0.00 | 90 | 1013.5 |
| 20260904094003 | 24 | 173 | 0.0 | 1.6 | 0.00 | 0.00 | 0.00 | 90 | 1013.6 |
| 20260904093503 | 24 | 173 | 0.0 | 1.6 | 0.00 | 0.00 | 0.00 | 89 | 1013.6 |
| 20260904092003 | 24 | 173 | 0.0 | 3.2 | 0.00 | 0.00 | 0.00 | 89 | 1013.6 |
| 20260904091503 | 24 | 173 | 0.0 | 3.2 | 0.00 | 0.00 | 0.00 | 89 | 1013.6 |
| 20260904091003 | 24 | 173 | 0.0 | 1.6 | 0.00 | 0.00 | 0.00 | 89 | 1013.6 |
| 20260904090502 | 24 | 173 | 0.0 | 1.6 | 0.00 | 0.00 | 0.00 | 88 | 1013.6 |
| 20260904085504 | 24 | 173 | 0.0 | 3.2 | 0.00 | 0.00 | 0.00 | 88 | 1013.5 |
| 20260904085003 | 24 | 173 | 0.0 | 1.6 | 0.00 | 0.00 | 0.00 | 88 | 1013.5 |
| 20260904084004 | 24 | 173 | 0.0 | 3.2 | 0.00 | 0.00 | 0.00 | 88 | 1013.6 |
| 20260904083503 | 24 | 173 | 0.0 | 3.2 | 0.00 | 0.00 | 0.00 | 88 | 1013.6 |
| 20260904083003 | 24 | 0 | 0.0 | 0.0 | 0.00 | 0.00 | 0.00 | 87 | 1013.5 |
| 20260904082003 | 25 | 173 | 0.0 | 3.2 | 0.00 | 0.00 | 0.00 | 87 | 1013.4 |
| 20260904081503 | 25 | 173 | 0.0 | 3.2 | 0.00 | 0.00 | 0.00 | 86 | 1013.5 |
| 20260904081003 | 25 | 172 | 0.0 | 3.2 | 0.00 | 0.00 | 0.00 | 86 | 1013.6 |
| 20260904080503 | 25 | 171 | 0.0 | 3.2 | 0.00 | 0.00 | 0.00 | 86 | 1013.6 |
| 20260904080004 | 25 | 171 | 0.0 | 3.2 | 0.00 | 0.00 | 0.00 | 86 | 1013.5 |
| 20260904075503 | 25 | 172 | 0.0 | 1.6 | 0.00 | 0.00 | 0.00 | 86 | 1013.4 |
| 20260904075004 | 25 | 171 | 0.0 | 3.2 | 0.00 | 0.00 | 0.00 | 85 | 1013.3 |
| 20260904074503 | 25 | 170 | 0.0 | 3.2 | 0.00 | 0.00 | 0.00 | 85 | 1013.2 |
| 20260904073003 | 25 | 159 | 0.0 | 1.6 | 0.00 | 0.00 | 0.00 | 85 | 1013.5 |
| 20260904072503 | 25 | 160 | 0.0 | 3.2 | 0.00 | 0.00 | 0.00 | 85 | 1013.6 |
| 20260904072003 | 25 | 156 | 0.0 | 3.2 | 0.00 | 0.00 | 0.00 | 84 | 1013.6 |
| 20260904071504 | 25 | 159 | 0.0 | 3.2 | 0.00 | 0.00 | 0.00 | 84 | 1013.6 |
| 20260904071003 | 25 | 168 | 0.0 | 3.2 | 0.00 | 0.00 | 0.00 | 84 | 1013.5 |
| 20260904070004 | 25 | 183 | 1.6 | 6.4 | 0.00 | 0.00 | 0.00 | 84 | 1013.5 |
| 20260904065504 | 25 | 184 | 1.6 | 6.4 | 0.00 | 0.00 | 0.00 | 84 | 1013.6 |
| 20260904065003 | 25 | 175 | 1.6 | 4.8 | 0.00 | 0.00 | 0.00 | 84 | 1013.7 |
| 20260904064504 | 25 | 178 | 1.6 | 4.8 | 0.00 | 0.00 | 0.00 | 83 | 1013.7 |
| 20260904064003 | 25 | 179 | 1.6 | 4.8 | 0.00 | 0.00 | 0.00 | 83 | 1013.7 |
| 20260904063503 | 25 | 175 | 1.6 | 6.4 | 0.00 | 0.00 | 0.00 | 83 | 1013.6 |
| 20260904063004 | 25 | 175 | 1.6 | 6.4 | 0.00 | 0.00 | 0.00 | 83 | 1013.6 |
| 20260904062503 | 25 | 172 | 0.0 | 3.2 | 0.00 | 0.00 | 0.00 | 83 | 1013.6 |
| 20260904062003 | 25 | 173 | 0.0 | 3.2 | 0.00 | 0.00 | 0.00 | 82 | 1013.6 |
| 20260904061504 | 25 | 173 | 0.0 | 3.2 | 0.00 | 0.00 | 0.00 | 82 | 1013.6 |
| 20260904061003 | 25 | 170 | 0.0 | 3.2 | 0.00 | 0.00 | 0.00 | 82 | 1013.7 |
| 20260904060503 | 25 | 177 | 0.0 | 3.2 | 0.00 | 0.00 | 0.00 | 82 | 1013.7 |
| 20260904060004 | 25 | 185 | 1.6 | 4.8 | 0.00 | 0.00 | 0.00 | 82 | 1013.6 |
| 20260904055504 | 25 | 190 | 1.6 | 4.8 | 0.00 | 0.00 | 0.00 | 81 | 1013.6 |
| 20260904055004 | 25 | 187 | 1.6 | 4.8 | 0.00 | 0.00 | 0.00 | 81 | 1013.7 |
| 20260904054504 | 25 | 183 | 1.6 | 4.8 | 0.00 | 0.00 | 0.00 | 81 | 1013.7 |
| 20260904054003 | 25 | 172 | 0.0 | 4.8 | 0.00 | 0.00 | 0.00 | 81 | 1013.6 |
| 20260904053504 | 25 | 191 | 0.0 | 4.8 | 0.00 | 0.00 | 0.00 | 81 | 1013.5 |
| 20260904053003 | 25 | 193 | 1.6 | 4.8 | 0.00 | 0.00 | 0.00 | 81 | 1013.5 |
| 20260904052501 | 25 | 171 | 1.6 | 4.8 | 0.00 | 0.00 | 0.00 | 80 | 1013.5 |
| 20260904052001 | 25 | 179 | 1.6 | 4.8 | 0.00 | 0.00 | 0.00 | 80 | 1013.6 |
| 20260904051501 | 25 | 194 | 0.0 | 4.8 | 0.00 | 0.00 | 0.00 | 80 | 1013.6 |
| 20260904051001 | 26 | 199 | 0.0 | 4.8 | 0.00 | 0.00 | 0.00 | 80 | 1013.6 |
| 20260904050501 | 26 | 199 | 0.0 | 4.8 | 0.00 | 0.00 | 0.00 | 80 | 1013.5 |
| 20260904050002 | 26 | 200 | 0.0 | 4.8 | 0.00 | 0.00 | 0.00 | 80 | 1013.6 |
| 20260904045502 | 26 | 201 | 0.0 | 4.8 | 0.00 | 0.00 | 0.00 | 79 | 1013.6 |
| 20260904045001 | 26 | 207 | 0.0 | 4.8 | 0.00 | 0.00 | 0.00 | 79 | 1013.6 |
| 20260904044501 | 26 | 187 | 1.6 | 4.8 | 0.00 | 0.00 | 0.00 | 79 | 1013.7 |
| 20260904042501 | 26 | 174 | 1.6 | 6.4 | 0.00 | 0.00 | 0.00 | 78 | 1013.7 |
| 20260904042001 | 26 | 170 | 1.6 | 6.4 | 0.00 | 0.00 | 0.00 | 78 | 1013.8 |
| 20260904041501 | 26 | 175 | 1.6 | 6.4 | 0.00 | 0.00 | 0.00 | 78 | 1013.8 |
| 20260904041001 | 26 | 174 | 1.6 | 6.4 | 0.00 | 0.00 | 0.00 | 77 | 1013.8 |
| 20260904040501 | 26 | 171 | 1.6 | 4.8 | 0.00 | 0.00 | 0.00 | 77 | 1013.7 |
| 20260904040002 | 26 | 182 | 1.6 | 4.8 | 0.00 | 0.00 | 0.00 | 77 | 1013.7 |
| 20260904035501 | 26 | 177 | 1.6 | 4.8 | 0.00 | 0.00 | 0.00 | 77 | 1013.7 |
| 20260904035001 | 26 | 176 | 1.6 | 4.8 | 0.00 | 0.00 | 0.00 | 77 | 1013.7 |
| 20260904034001 | 26 | 179 | 0.0 | 4.8 | 0.00 | 0.00 | 0.00 | 77 | 1013.6 |
| 20260904033001 | 27 | 166 | 1.6 | 6.4 | 0.00 | 0.00 | 0.00 | 76 | 1013.8 |
| 20260904032501 | 27 | 172 | 1.6 | 8.0 | 0.00 | 0.00 | 0.00 | 76 | 1013.8 |
| 20260904032001 | 27 | 175 | 3.2 | 8.0 | 0.00 | 0.00 | 0.00 | 76 | 1013.7 |
| 20260904030501 | 27 | 170 | 3.2 | 12.9 | 0.00 | 0.00 | 0.00 | 76 | 1013.7 |
| 20260904030002 | 27 | 171 | 3.2 | 12.9 | 0.00 | 0.00 | 0.00 | 76 | 1013.7 |
| 20260904025501 | 27 | 173 | 3.2 | 11.3 | 0.00 | 0.00 | 0.00 | 76 | 1013.6 |
| 20260904025001 | 27 | 170 | 3.2 | 11.3 | 0.00 | 0.00 | 0.00 | 76 | 1013.6 |
| 20260904024502 | 27 | 162 | 1.6 | 9.7 | 0.00 | 0.00 | 0.00 | 76 | 1013.5 |
| 20260904024002 | 27 | 165 | 1.6 | 9.7 | 0.00 | 0.00 | 0.00 | 76 | 1013.4 |
| 20260904023501 | 27 | 173 | 3.2 | 9.7 | 0.00 | 0.00 | 0.00 | 76 | 1013.2 |
| 20260904023001 | 27 | 171 | 1.6 | 11.3 | 0.00 | 0.00 | 0.00 | 76 | 1013.2 |
| 20260904022501 | 27 | 172 | 3.2 | 11.3 | 0.00 | 0.00 | 0.00 | 76 | 1012.9 |
| 20260904022001 | 27 | 181 | 3.2 | 11.3 | 0.00 | 0.00 | 0.00 | 76 | 1012.8 |
| 20260904021001 | 28 | 173 | 3.2 | 8.0 | 0.00 | 0.00 | 0.00 | 78 | 1012.7 |
| 20260904020501 | 28 | 173 | 3.2 | 8.0 | 0.00 | 0.00 | 0.00 | 78 | 1012.7 |
| 20260904020001 | 28 | 166 | 1.6 | 8.0 | 0.00 | 0.00 | 0.00 | 77 | 1012.7 |
| 20260904015501 | 28 | 165 | 3.2 | 8.0 | 0.00 | 0.00 | 0.00 | 76 | 1012.5 |
| 20260904015001 | 28 | 168 | 3.2 | 16.1 | 0.00 | 0.00 | 0.00 | 76 | 1012.5 |
| 20260904014501 | 28 | 167 | 3.2 | 16.1 | 0.00 | 0.00 | 0.00 | 75 | 1012.4 |
| 20260904014002 | 28 | 173 | 3.2 | 12.9 | 0.00 | 0.00 | 0.00 | 75 | 1012.4 |
| 20260904013501 | 28 | 175 | 4.8 | 9.7 | 0.00 | 0.00 | 0.00 | 75 | 1012.3 |
| 20260904013001 | 28 | 174 | 3.2 | 12.9 | 0.00 | 0.00 | 0.00 | 75 | 1012.3 |
| 20260904012502 | 28 | 173 | 3.2 | 12.9 | 0.00 | 0.00 | 0.00 | 75 | 1012.2 |
| 20260904012002 | 29 | 170 | 3.2 | 11.3 | 0.00 | 0.00 | 0.00 | 75 | 1012.1 |
| 20260904011501 | 29 | 169 | 3.2 | 12.9 | 0.00 | 0.00 | 0.00 | 74 | 1012.0 |
| 20260904011001 | 29 | 167 | 3.2 | 12.9 | 0.00 | 0.00 | 0.00 | 74 | 1012.0 |
| 20260904010001 | 30 | 177 | 4.8 | 11.3 | 0.00 | 0.00 | 0.00 | 74 | 1011.9 |
| 20260904004502 | 30 | 160 | 3.2 | 11.3 | 0.00 | 0.00 | 0.00 | 72 | 1012.0 |
| 20260904004001 | 30 | 162 | 3.2 | 12.9 | 0.00 | 0.00 | 0.00 | 72 | 1012.0 |
| 20260904003501 | 30 | 164 | 3.2 | 14.5 | 0.00 | 0.00 | 0.00 | 71 | 1012.0 |
| 20260904003001 | 30 | 163 | 3.2 | 14.5 | 0.00 | 0.00 | 0.00 | 70 | 1011.8 |
| 20260904002501 | 31 | 163 | 3.2 | 12.9 | 0.00 | 0.00 | 0.00 | 69 | 1011.9 |
| 20260904001501 | 31 | 161 | 3.2 | 11.3 | 0.00 | 0.00 | 0.00 | 68 | 1011.9 |
| 20260904001001 | 31 | 163 | 4.8 | 14.5 | 0.00 | 0.00 | 0.00 | 68 | 1011.8 |
| 20260904000502 | 31 | 160 | 6.4 | 14.5 | 0.00 | 0.00 | 0.00 | 67 | 1011.8 |
| 20260904000002 | 31 | 151 | 4.8 | 14.5 | 0.00 | 0.00 | 0.00 | 66 | 1011.8 |
| 20260903235501 | 32 | 156 | 4.8 | 11.3 | 0.00 | 0.00 | 0.00 | 65 | 1011.8 |
| 20260903235002 | 32 | 162 | 4.8 | 12.9 | 0.00 | 0.00 | 0.00 | 65 | 1011.7 |
| 20260903234502 | 32 | 154 | 4.8 | 12.9 | 0.00 | 0.00 | 0.00 | 65 | 1011.6 |
| 20260903234001 | 32 | 156 | 4.8 | 12.9 | 0.00 | 0.00 | 0.00 | 65 | 1011.7 |
| 20260903233501 | 32 | 160 | 4.8 | 12.9 | 0.00 | 0.00 | 0.00 | 65 | 1011.7 |
| 20260903233001 | 32 | 157 | 4.8 | 12.9 | 0.00 | 0.00 | 0.00 | 65 | 1011.6 |
| 20260903232501 | 32 | 159 | 3.2 | 12.9 | 0.00 | 0.00 | 0.00 | 65 | 1011.6 |
| 20260903232001 | 32 | 166 | 3.2 | 12.9 | 0.00 | 0.00 | 0.00 | 65 | 1011.5 |
| 20260903231501 | 32 | 164 | 4.8 | 16.1 | 0.00 | 0.00 | 0.00 | 66 | 1011.6 |
| 20260903231001 | 32 | 155 | 4.8 | 16.1 | 0.00 | 0.00 | 0.00 | 66 | 1011.6 |
| 20260903230501 | 32 | 157 | 4.8 | 14.5 | 0.00 | 0.00 | 0.00 | 66 | 1011.5 |
| 20260903230002 | 32 | 161 | 4.8 | 16.1 | 0.00 | 0.00 | 0.00 | 67 | 1011.6 |
| 20260903225002 | 32 | 153 | 4.8 | 14.5 | 0.00 | 0.00 | 0.00 | 67 | 1011.5 |
| 20260903224502 | 32 | 144 | 4.8 | 14.5 | 0.00 | 0.00 | 0.00 | 66 | 1011.5 |
| 20260903224001 | 33 | 157 | 4.8 | 14.5 | 0.00 | 0.00 | 0.00 | 65 | 1011.5 |
| 20260903223501 | 33 | 159 | 4.8 | 14.5 | 0.00 | 0.00 | 0.00 | 65 | 1011.5 |
| 20260903223002 | 33 | 138 | 3.2 | 11.3 | 0.00 | 0.00 | 0.00 | 64 | 1011.5 |
| 20260903222502 | 33 | 117 | 1.6 | 11.3 | 0.00 | 0.00 | 0.00 | 64 | 1011.4 |
| 20260903221501 | 33 | 156 | 3.2 | 9.7 | 0.00 | 0.00 | 0.00 | 63 | 1011.4 |
| 20260903221002 | 33 | 171 | 4.8 | 17.7 | 0.00 | 0.00 | 0.00 | 62 | 1011.4 |
| 20260903220502 | 33 | 176 | 6.4 | 17.7 | 0.00 | 0.00 | 0.00 | 62 | 1011.5 |
| 20260903220002 | 33 | 174 | 4.8 | 14.5 | 0.00 | 0.00 | 0.00 | 61 | 1011.5 |
| 20260903215501 | 33 | 161 | 3.2 | 11.3 | 0.00 | 0.00 | 0.00 | 62 | 1011.6 |
| 20260903215002 | 33 | 166 | 4.8 | 12.9 | 0.00 | 0.00 | 0.00 | 62 | 1011.7 |
| 20260903214502 | 33 | 160 | 4.8 | 12.9 | 0.00 | 0.00 | 0.00 | 62 | 1011.7 |
| 20260903214001 | 33 | 168 | 4.8 | 16.1 | 0.00 | 0.00 | 0.00 | 62 | 1011.8 |
| 20260903213001 | 34 | 174 | 3.2 | 16.1 | 0.00 | 0.00 | 0.00 | 61 | 1011.8 |
| 20260903212502 | 33 | 187 | 4.8 | 12.9 | 0.00 | 0.00 | 0.00 | 62 | 1011.8 |
| 20260903212002 | 33 | 190 | 4.8 | 12.9 | 0.00 | 0.00 | 0.00 | 62 | 1011.9 |
| 20260903211502 | 33 | 170 | 4.8 | 12.9 | 0.00 | 0.00 | 0.00 | 63 | 1011.9 |
| 20260903210502 | 33 | 179 | 4.8 | 17.7 | 0.00 | 0.00 | 0.00 | 64 | 1012.1 |
| 20260903205502 | 32 | 187 | 6.4 | 16.1 | 0.00 | 0.00 | 0.00 | 65 | 1012.2 |
| 20260903204502 | 32 | 179 | 6.4 | 16.1 | 0.00 | 0.00 | 0.00 | 65 | 1012.2 |
| 20260903204002 | 32 | 185 | 6.4 | 16.1 | 0.00 | 0.00 | 0.00 | 66 | 1012.3 |
| 20260903203502 | 32 | 184 | 6.4 | 19.3 | 0.00 | 0.00 | 0.00 | 66 | 1012.5 |
| 20260903203002 | 32 | 181 | 6.4 | 19.3 | 0.00 | 0.00 | 0.00 | 66 | 1012.5 |
| 20260903202002 | 32 | 191 | 6.4 | 17.7 | 0.00 | 0.00 | 0.00 | 67 | 1012.8 |
| 20260903201002 | 32 | 182 | 8.0 | 16.1 | 0.00 | 0.00 | 0.00 | 67 | 1012.7 |
| 20260903200502 | 31 | 184 | 6.4 | 16.1 | 0.00 | 0.00 | 0.00 | 69 | 1012.7 |
| 20260903200002 | 31 | 179 | 6.4 | 19.3 | 0.00 | 0.00 | 0.00 | 69 | 1012.8 |
| 20260903195502 | 31 | 165 | 6.4 | 19.3 | 0.00 | 0.00 | 0.00 | 69 | 1012.8 |
| 20260903195002 | 31 | 168 | 8.0 | 17.7 | 0.00 | 0.00 | 0.00 | 70 | 1012.8 |
| 20260903194002 | 30 | 178 | 8.0 | 17.7 | 0.00 | 0.00 | 0.00 | 71 | 1012.8 |
| 20260903193502 | 31 | 177 | 8.0 | 17.7 | 0.00 | 0.00 | 0.00 | 70 | 1012.9 |
| 20260903193002 | 30 | 174 | 8.0 | 17.7 | 0.00 | 0.00 | 0.00 | 71 | 1013.0 |
| 20260903192502 | 30 | 181 | 8.0 | 17.7 | 0.00 | 0.00 | 0.00 | 71 | 1013.2 |
| 20260903192002 | 30 | 184 | 8.0 | 17.7 | 0.00 | 0.00 | 0.00 | 71 | 1013.2 |
| 20260903191502 | 30 | 177 | 6.4 | 17.7 | 0.00 | 0.00 | 0.00 | 72 | 1013.4 |